Weather History for KOKK - September, 2013

Change the Weather History Date:

Thursday, September 12, 2013

  Actual Average (KGUS) Record (KGUS)
Temperature  
Mean Temperature 71 °F -  
Max Temperature 82 °F 76 °F 89 °F (2005)
Min Temperature 59 °F 55 °F 46 °F (2007)
Cooling Degree Days 6    
Growing Degree Days 21 (Base 50)    
Moisture  
Dew Point 61 °F    
Average Humidity 70    
Maximum Humidity 88    
Minimum Humidity 41    
Precipitation  
Precipitation 1.41 in - - ()
Sea Level Pressure  
Sea Level Pressure 29.96 in    
Wind  
Wind Speed 9 mph (WNW)    
Max Wind Speed 30 mph    
Max Gust Speed 36 mph    
Visibility 9 miles    
Events Thunderstorm    
Averages and records for this station are not official NWS values.
T = Trace of Precipitation, MM = Missing Value Source: NWS Daily Summary

Daily Weather History Graph

Daily Weather History Graph

Search for Another Location

Airport or City:

Trip Planner

Search our weather history database for the weather conditions in past years. The results will help you decide how hot, cold, wet, or windy it might be!

Date:

Astronomy

Sep. 12, 2013 Rise Set
Actual Time 6:22 AM CDT 6:57 PM CDT
Civil Twilight 5:54 AM CDT 7:25 PM CDT
Nautical Twilight 5:22 AM CDT 7:57 PM CDT
Astronomical Twilight 4:48 AM CDT 8:30 PM CDT
Moon 1:50 PM CDT (9/12) 11:51 PM CDT (9/12)
Length of Visible Light 13h 30m
Length of Day
12h 35m
Waxing Crescent, 50% of the Moon is Illuminated
Sep 12
Waxing Crescent
Sep 12
First Quarter
Sep 19
Full
Sep 26
Last Quarter
Oct 4
New

Hourly Weather History & Observations

Time (CDT) Temp. Heat Index Dew Point Humidity Pressure Visibility Wind Dir Wind Speed Gust Speed Precip Events Conditions
12:15 AM 71.6 °F - 62.6 °F 73% 30.01 in 10.0 mi WNW 5.8 mph - N/A   Mostly Cloudy
12:35 AM 73.4 °F - 62.6 °F 69% 30.01 in 10.0 mi NW 3.5 mph - N/A   Partly Cloudy
12:55 AM 73.4 °F - 64.4 °F 73% 30.01 in 10.0 mi NW 11.5 mph - N/A   Clear
1:15 AM 73.4 °F - 64.4 °F 73% 30.01 in 10.0 mi NW 13.8 mph - N/A   Partly Cloudy
1:35 AM 73.4 °F - 64.4 °F 73% 30.01 in 10.0 mi NW 11.5 mph - N/A   Mostly Cloudy
1:55 AM 71.6 °F - 64.4 °F 78% 30.01 in 10.0 mi WNW 9.2 mph - 0.01 in   Mostly Cloudy
2:15 AM 71.6 °F - 66.2 °F 83% 29.99 in 10.0 mi NW 3.5 mph - 0.01 in   Mostly Cloudy
2:35 AM 69.8 °F - 66.2 °F 88% 29.97 in 10.0 mi Calm Calm - 0.02 in   Scattered Clouds
2:55 AM 69.8 °F - 66.2 °F 88% 30.00 in 10.0 mi NW 8.1 mph - 0.03 in   Mostly Cloudy
3:15 AM 69.8 °F - 66.2 °F 88% 29.99 in 9.0 mi WNW 3.5 mph - N/A   Overcast
3:35 AM 69.8 °F - 66.2 °F 88% 30.00 in 10.0 mi West 5.8 mph - N/A Thunderstorm Mostly Cloudy
3:55 AM 68.0 °F - 64.4 °F 88% 30.00 in 4.0 mi West 10.4 mph - 0.38 in Thunderstorm Thunderstorm
4:15 AM 69.8 °F - 64.4 °F 83% 29.99 in 10.0 mi West 10.4 mph - 0.20 in Thunderstorm Thunderstorm
4:35 AM 69.8 °F - 64.4 °F 83% 29.99 in 6.0 mi West 10.4 mph - 0.38 in   Overcast
4:55 AM 69.8 °F - 64.4 °F 83% 29.97 in 7.0 mi West 10.4 mph - 0.60 in Thunderstorm Overcast
5:15 AM 69.8 °F - 66.2 °F 88% 29.98 in 9.0 mi West 10.4 mph - 0.05 in Thunderstorm Thunderstorm
5:35 AM 69.8 °F - 66.2 °F 88% 29.99 in 7.0 mi West 10.4 mph - 0.20 in   Mostly Cloudy
5:55 AM 69.8 °F - 64.4 °F 83% 29.99 in 10.0 mi WNW 12.7 mph - 0.24 in   Mostly Cloudy
6:15 AM 69.8 °F - 64.4 °F 83% 29.99 in 9.0 mi WNW 9.2 mph - 0.04 in   Overcast
6:35 AM 69.8 °F - 64.4 °F 83% 29.98 in 10.0 mi West 8.1 mph - 0.12 in   Overcast
6:55 AM 69.8 °F - 64.4 °F 83% 29.99 in 10.0 mi West 6.9 mph - 0.14 in   Mostly Cloudy
7:15 AM 69.8 °F - 64.4 °F 83% 29.98 in 10.0 mi WSW 8.1 mph - N/A   Mostly Cloudy
7:35 AM 69.8 °F - 64.4 °F 83% 29.99 in 10.0 mi West 8.1 mph - N/A   Partly Cloudy
7:55 AM 69.8 °F - 64.4 °F 83% 29.99 in 10.0 mi West 6.9 mph - N/A   Mostly Cloudy
8:15 AM 69.8 °F - 64.4 °F 83% 30.00 in 10.0 mi West 9.2 mph - N/A   Mostly Cloudy
8:35 AM 69.8 °F - 64.4 °F 83% 29.99 in 10.0 mi West 6.9 mph - N/A   Overcast
8:55 AM 69.8 °F - 64.4 °F 83% 29.99 in 10.0 mi West 6.9 mph - N/A   Overcast
9:15 AM - - - N/A% 29.99 in - West 8.1 mph - N/A   Unknown
9:35 AM 69.8 °F - 64.4 °F 83% 30.01 in 6.0 mi West 10.4 mph - N/A   Unknown
9:55 AM 69.8 °F - 66.2 °F 88% 30.01 in 5.0 mi West 9.2 mph - N/A   Overcast
10:15 AM 71.6 °F - 66.2 °F 83% 30.00 in 5.0 mi West 9.2 mph - N/A   Overcast
10:35 AM 71.6 °F - 66.2 °F 83% 29.99 in - WSW 8.1 mph - N/A   Mostly Cloudy
10:55 AM 71.6 °F - 66.2 °F 83% 30.00 in 5.0 mi West 9.2 mph - 0.01 in   Mostly Cloudy
11:15 AM 71.6 °F - 66.2 °F 83% 29.99 in 5.0 mi West 10.4 mph 21.9 mph N/A   Overcast
11:35 AM 73.4 °F - 66.2 °F 78% 29.98 in 5.0 mi West 9.2 mph - N/A   Mostly Cloudy
11:55 AM - - - N/A% 29.98 in 6.0 mi WNW 9.2 mph - N/A   Scattered Clouds
12:15 PM - - - N/A% 29.97 in 7.0 mi WNW 8.1 mph - N/A   Clear
12:35 PM - - - N/A% 29.97 in 9.0 mi West 9.2 mph - N/A   Scattered Clouds
12:55 PM 77.0 °F - 64.4 °F 65% 29.96 in 10.0 mi WNW 8.1 mph - N/A   Partly Cloudy
1:15 PM 78.8 °F - 64.4 °F 61% 29.96 in 10.0 mi West 9.2 mph - N/A   Clear
1:35 PM 78.8 °F - 62.6 °F 57% 29.95 in 10.0 mi NW 8.1 mph - N/A   Clear
1:55 PM 80.6 °F 81.8 °F 62.6 °F 54% 29.94 in 10.0 mi West 8.1 mph - N/A   Partly Cloudy
2:15 PM 80.6 °F 81.8 °F 62.6 °F 54% 29.92 in 10.0 mi NW 4.6 mph - N/A   Partly Cloudy
2:35 PM 82.4 °F 83.4 °F 62.6 °F 51% 29.91 in 10.0 mi WNW 8.1 mph - N/A   Clear
2:55 PM 82.4 °F 82.5 °F 59.0 °F 45% 29.90 in 10.0 mi NNW 6.9 mph - N/A   Clear
3:15 PM 82.4 °F 82.9 °F 60.8 °F 48% 29.90 in 10.0 mi WNW 12.7 mph - N/A   Clear
3:35 PM 82.4 °F 82.5 °F 59.0 °F 45% 29.90 in 10.0 mi West 10.4 mph 16.1 mph N/A   Clear
3:55 PM 82.4 °F 82.5 °F 59.0 °F 45% 29.89 in 10.0 mi West 13.8 mph 21.9 mph N/A   Clear
4:15 PM 82.4 °F 82.5 °F 59.0 °F 45% 29.87 in 10.0 mi West 16.1 mph 23.0 mph N/A   Clear
4:35 PM 82.4 °F 82.9 °F 60.8 °F 48% 29.86 in 10.0 mi West 12.7 mph 23.0 mph N/A   Clear
4:55 PM 80.6 °F 81.5 °F 60.8 °F 51% 29.86 in 10.0 mi West 16.1 mph - N/A   Partly Cloudy
5:15 PM 80.6 °F 81.5 °F 60.8 °F 51% 29.86 in 10.0 mi West 13.8 mph - N/A   Scattered Clouds
5:35 PM 80.6 °F 80.8 °F 57.2 °F 45% 29.86 in 10.0 mi NW 29.9 mph 35.7 mph N/A   Scattered Clouds
5:55 PM - - - N/A% 29.87 in 10.0 mi NW 24.2 mph 31.1 mph N/A   Partly Cloudy
6:15 PM - - - N/A% 29.88 in 10.0 mi NW 16.1 mph - N/A   Clear
6:35 PM - - - N/A% 29.89 in 10.0 mi NW 13.8 mph - N/A   Clear
6:55 PM 73.4 °F - 48.2 °F 41% 29.90 in 10.0 mi NW 9.2 mph - N/A   Clear
7:15 PM 73.4 °F - 53.6 °F 50% 29.91 in 10.0 mi NNW 18.4 mph 24.2 mph N/A   Clear
7:35 PM 71.6 °F - 55.4 °F 57% 29.93 in 10.0 mi NNW 17.3 mph 20.7 mph N/A   Clear
7:55 PM 69.8 °F - 53.6 °F 56% 29.95 in 10.0 mi North 15.0 mph 25.3 mph N/A   Clear
8:15 PM 68.0 °F - 53.6 °F 60% 29.96 in 10.0 mi North 12.7 mph 19.6 mph N/A   Clear
8:35 PM 66.2 °F - 53.6 °F 64% 29.96 in 10.0 mi North 10.4 mph - N/A   Clear
8:55 PM 66.2 °F - 53.6 °F 64% 29.97 in 10.0 mi NNW 11.5 mph - N/A   Clear
9:15 PM 64.4 °F - 51.8 °F 64% 29.99 in 10.0 mi NNW 9.2 mph - N/A   Clear
9:35 PM 64.4 °F - 51.8 °F 64% 29.99 in 10.0 mi North 9.2 mph - N/A   Clear
9:55 PM 62.6 °F - 51.8 °F 68% 29.99 in 10.0 mi NNW 9.2 mph - N/A   Clear
10:15 PM 62.6 °F - 51.8 °F 68% 29.99 in 10.0 mi NNW 6.9 mph - N/A   Clear
10:35 PM 62.6 °F - 51.8 °F 68% 29.99 in 10.0 mi North 10.4 mph - N/A   Clear
10:55 PM 60.8 °F - 51.8 °F 72% 30.00 in 10.0 mi North 9.2 mph - N/A   Clear
11:15 PM 60.8 °F - 51.8 °F 72% 30.00 in 10.0 mi North 8.1 mph - N/A   Clear
11:35 PM 60.8 °F - 50.0 °F 68% 30.01 in 10.0 mi North 9.2 mph - N/A   Clear
11:55 PM 59.0 °F - 51.8 °F 77% 30.01 in 10.0 mi North 8.1 mph - N/A   Clear